PBO Station Position Time Series. Reference Frame : NAM14
Format Version,1.1.0
4-character ID,P670
Station name,LVManzLakeCN2007
Begin Date, 2007-09-15
End Date, 2018-11-30
Release Date, 2019-08-30
Reference position, 40.5399053394 North Latitude, -121.5771971361 East Longitude, 1731.74018 meters elevation,
Date, North (mm), East (mm), Vertical (mm), North Std. Deviation (mm), East Std. Deviation (mm),              Vertical Std. Deviation (mm), Quality,
2007-09-15,0.00, 0.00, 0.00, 2.26, 1.74, 7.80, repro,
2007-09-16,0.56, -0.59, 3.38, 2.15, 1.65, 7.42, repro,
2007-09-17,-1.01, -1.52, 9.62, 2.25, 1.76, 7.88, repro,
2007-09-18,1.01, -1.99, 1.83, 2.11, 1.66, 7.41, repro,
2007-09-19,1.32, -1.68, 2.88, 2.10, 1.61, 7.30, repro,
2007-09-20,2.26, 0.42, -9.74, 2.09, 1.59, 7.26, repro,
2007-09-21,1.75, 0.37, 2.88, 2.12, 1.61, 7.35, repro,
2007-09-22,0.59, 0.48, 2.53, 2.10, 1.60, 7.24, repro,
2007-09-23,-0.40, -0.43, 8.78, 2.16, 1.64, 7.43, repro,
2007-09-24,0.30, 0.62, -1.41, 2.23, 1.71, 7.85, repro,
2007-09-25,-1.06, 0.76, -5.18, 2.17, 1.62, 7.50, repro,
2007-09-26,1.23, -0.23, 6.03, 2.09, 1.58, 7.17, repro,
2007-09-27,-0.03, -0.36, 3.89, 2.12, 1.62, 7.35, repro,
2007-09-28,-1.16, 0.20, 4.66, 2.09, 1.67, 7.41, repro,
2007-09-29,2.49, 0.19, -10.61, 2.19, 1.73, 7.82, repro,
2007-09-30,-0.48, 0.46, 1.58, 2.17, 1.69, 7.61, repro,
2007-10-01,0.20, 0.59, 1.41, 2.16, 1.68, 7.54, repro,
2007-10-02,0.15, 1.57, 6.09, 2.17, 1.72, 7.66, repro,
2007-10-03,1.14, 0.51, 4.82, 2.16, 1.71, 7.62, repro,
2007-10-04,-0.30, -1.09, 13.30, 2.14, 1.65, 7.47, repro,
2007-10-05,3.49, 1.58, 7.60, 2.18, 1.74, 7.77, repro,
2007-10-06,1.74, 1.83, 6.75, 2.16, 1.69, 7.55, repro,
2007-10-07,2.63, 1.56, 0.67, 2.19, 1.69, 7.62, repro,
2007-10-08,-0.11, 0.07, 1.76, 2.40, 1.79, 8.28, repro,
2007-10-09,-4.10, 0.15, 0.21, 2.35, 1.91, 8.47, repro,
2007-10-10,-1.19, 0.27, -7.20, 2.27, 1.73, 7.87, repro,
2007-10-11,1.35, 1.14, -4.44, 2.14, 1.68, 7.52, repro,
2007-10-12,-0.02, -0.95, 5.84, 2.14, 1.68, 7.61, repro,
2007-10-13,1.32, 1.19, 5.87, 2.07, 1.61, 7.28, repro,
2007-10-14,-0.14, 0.26, -1.10, 2.06, 1.62, 7.26, repro,
2007-10-15,-4.37, -1.38, 5.33, 2.08, 1.65, 7.41, repro,
2007-10-16,-2.28, 0.50, 4.47, 2.08, 1.63, 7.28, repro,
2007-10-17,-1.11, 1.37, 7.52, 2.12, 1.65, 7.45, repro,
2007-10-18,1.71, 1.70, -0.38, 2.09, 1.62, 7.34, repro,
2007-10-19,-0.73, 0.51, 13.89, 2.05, 1.58, 7.19, repro,
2007-10-20,-2.44, 1.44, 11.93, 2.12, 1.67, 7.45, repro,
2007-10-21,2.42, 0.48, 0.17, 2.08, 1.64, 7.41, repro,
2007-10-22,2.26, 0.42, -4.89, 2.09, 1.61, 7.34, repro,
2007-10-23,0.98, 1.38, -5.74, 2.15, 1.68, 7.54, repro,
2007-10-24,-0.71, 1.00, -2.24, 2.20, 1.73, 7.78, repro,
2007-10-25,0.19, 0.07, -5.30, 2.07, 1.62, 7.28, repro,
2007-10-26,0.41, -0.23, -0.63, 2.08, 1.68, 7.38, repro,
2007-10-27,1.99, -1.93, 0.82, 2.09, 1.63, 7.34, repro,
2007-10-28,-0.31, 0.03, -2.52, 2.07, 1.61, 7.22, repro,
2007-10-29,-0.16, -1.50, 0.48, 2.14, 1.68, 7.49, repro,
2007-10-30,0.63, 0.53, 0.97, 2.09, 1.62, 7.35, repro,
2007-10-31,0.80, 0.68, -4.66, 2.07, 1.63, 7.34, repro,
2007-11-01,1.98, 0.68, -9.40, 2.04, 1.60, 7.20, repro,
2007-11-02,1.60, 1.53, -6.21, 2.04, 1.58, 7.09, repro,
2007-11-03,2.21, 0.98, -5.58, 2.05, 1.58, 7.13, repro,
2007-11-04,0.45, 0.02, -0.50, 2.06, 1.59, 7.16, repro,
2007-11-05,0.76, 0.34, -7.22, 2.03, 1.58, 7.06, repro,
2007-11-06,-0.14, -0.74, -3.86, 2.11, 1.69, 7.56, repro,
2007-11-07,0.99, -0.18, -6.26, 2.09, 1.63, 7.30, repro,
2007-11-08,0.28, 0.53, -2.03, 2.12, 1.65, 7.34, repro,
2007-11-09,-1.32, -1.40, -1.57, 2.09, 1.62, 7.29, repro,
2007-11-10,-0.46, -0.84, 2.17, 2.03, 1.58, 7.14, repro,
2007-11-11,1.09, 0.32, -4.06, 2.03, 1.59, 7.14, repro,
2007-11-12,0.33, -1.73, 3.30, 2.09, 1.62, 7.28, repro,
2007-11-13,3.03, 0.69, -6.87, 2.07, 1.61, 7.22, repro,
2007-11-14,0.96, 0.47, -6.80, 2.07, 1.60, 7.21, repro,
2007-11-15,1.48, -0.11, -8.91, 2.08, 1.60, 7.27, repro,
2007-11-16,1.47, -0.07, -7.03, 2.04, 1.59, 7.18, repro,
2007-11-17,0.91, -0.96, -3.50, 2.03, 1.58, 7.10, repro,
2007-11-18,1.49, 0.33, -2.62, 2.04, 1.60, 7.19, repro,
2007-11-19,0.60, 0.58, 2.96, 2.04, 1.59, 7.16, repro,
2007-11-20,1.05, 0.82, -6.19, 2.06, 1.63, 7.26, repro,
2007-11-21,2.47, -0.33, -5.85, 2.15, 1.69, 7.55, repro,
2007-11-22,1.54, 0.55, -5.77, 2.04, 1.60, 7.20, repro,
2007-11-23,2.86, -0.83, -6.27, 2.06, 1.66, 7.33, repro,
2007-11-24,1.50, -0.80, -4.01, 2.13, 1.69, 7.43, repro,
2007-11-25,1.30, -1.15, 1.76, 2.15, 1.74, 7.52, repro,
2007-11-26,2.47, -0.61, -9.50, 2.16, 1.73, 7.62, repro,
2007-11-27,1.49, 0.43, -3.08, 2.12, 1.69, 7.46, repro,
2007-11-28,2.88, -1.06, -6.41, 2.11, 1.70, 7.46, repro,
2007-11-29,0.68, -1.47, -2.48, 2.11, 1.68, 7.48, repro,
2007-11-30,1.68, 0.62, -5.61, 2.11, 1.67, 7.29, repro,
2007-12-01,0.83, 0.01, 3.27, 2.22, 1.79, 7.85, repro,
2007-12-02,-1.07, 1.00, -4.57, 2.13, 1.72, 7.71, repro,
2007-12-03,-1.44, 4.47, -4.47, 2.18, 1.75, 7.91, repro,
2007-12-04,0.62, -0.97, -7.10, 2.20, 1.81, 7.88, repro,
2007-12-05,1.56, 0.06, -1.52, 2.23, 1.84, 8.17, repro,
2007-12-06,2.67, 0.66, -3.03, 2.26, 1.82, 8.12, repro,
2007-12-07,1.04, 2.01, -7.29, 2.24, 1.85, 8.11, repro,
2007-12-08,2.08, -0.66, -9.73, 2.13, 1.73, 7.51, repro,
2007-12-09,3.03, -1.83, -9.38, 2.42, 2.13, 8.90, repro,
2007-12-10,3.66, 0.20, -9.59, 2.15, 1.77, 7.61, repro,
2007-12-11,1.79, -0.10, -5.36, 2.18, 1.72, 7.58, repro,
2007-12-12,1.83, -0.15, -5.71, 2.24, 1.74, 7.83, repro,
2007-12-13,2.50, 0.35, -11.44, 2.19, 1.72, 7.65, repro,
2007-12-14,2.08, 0.79, -7.99, 2.09, 1.63, 7.37, repro,
2007-12-15,-0.70, 0.03, 1.42, 2.11, 1.63, 7.41, repro,
2007-12-16,0.78, 0.19, -5.06, 2.10, 1.61, 7.34, repro,
2007-12-17,1.14, -0.27, 0.61, 2.16, 1.66, 7.44, repro,
2007-12-18,-0.12, 0.42, 5.41, 2.08, 1.60, 7.26, repro,
2007-12-19,1.19, 0.74, -2.78, 2.11, 1.66, 7.46, repro,
2007-12-20,1.10, -1.36, 4.79, 2.14, 1.66, 7.51, repro,
2007-12-21,1.98, -0.96, -10.61, 2.17, 1.69, 7.62, repro,
2007-12-22,1.37, -0.54, -10.93, 2.21, 1.74, 7.89, repro,
2007-12-23,0.74, 0.82, -14.69, 2.15, 1.70, 7.56, repro,
2007-12-24,1.38, 1.36, -1.06, 2.11, 1.64, 7.42, repro,
2007-12-25,1.48, -1.00, -5.14, 2.10, 1.64, 7.35, repro,
2007-12-26,1.82, -0.53, -2.43, 2.10, 1.63, 7.34, repro,
2007-12-27,1.61, -0.85, -2.03, 2.17, 1.69, 7.64, repro,
2007-12-28,-0.54, 0.12, -4.17, 2.22, 1.71, 7.67, repro,
2007-12-29,-0.48, 2.42, -12.01, 2.13, 1.62, 7.38, repro,
2007-12-30,0.64, 0.23, -1.50, 2.12, 1.62, 7.39, repro,
2007-12-31,3.68, 0.40, -11.85, 2.12, 1.63, 7.44, repro,
2008-01-01,1.75, 0.22, -8.84, 2.10, 1.60, 7.33, repro,
2008-01-02,0.57, 0.11, -2.90, 2.14, 1.62, 7.37, repro,
2008-01-03,-0.50, 0.96, -1.73, 2.12, 1.60, 7.33, repro,
2008-01-04,-0.24, 6.08, 3.79, 2.08, 1.56, 7.23, repro,
2008-01-05,-1.43, -0.41, 4.07, 2.08, 1.57, 7.24, repro,
2008-01-06,0.21, 0.44, -1.87, 2.08, 1.57, 7.24, repro,
2008-01-07,0.55, -0.09, 6.19, 2.06, 1.56, 7.11, repro,
2008-01-08,0.59, -1.28, -3.17, 2.13, 1.58, 7.32, repro,
2008-01-09,0.31, -1.54, -7.23, 2.13, 1.59, 7.40, repro,
2008-01-10,-2.39, -1.87, -18.78, 2.10, 1.60, 7.40, repro,
2008-01-11,0.84, -1.55, 0.00, 2.08, 1.58, 7.24, repro,
2008-01-12,-0.44, -0.42, -3.13, 2.07, 1.58, 7.20, repro,
2008-01-13,-0.53, -0.62, -7.76, 2.05, 1.57, 7.07, repro,
2008-01-14,-0.19, 0.64, -6.36, 2.06, 1.58, 7.12, repro,
2008-01-15,1.11, -0.07, -3.14, 2.06, 1.59, 7.21, repro,
2008-01-16,-0.60, -1.34, -11.61, 2.10, 1.60, 7.30, repro,
2008-01-17,-0.61, -1.42, -9.17, 2.09, 1.60, 7.27, repro,
2008-01-18,1.74, 0.59, -2.54, 2.06, 1.61, 7.25, repro,
2008-01-19,1.83, 0.96, -9.41, 2.06, 1.57, 7.14, repro,
2008-01-20,-0.28, 0.46, -11.02, 2.07, 1.59, 7.21, repro,
2008-01-21,0.60, 0.67, -12.82, 2.05, 1.57, 7.14, repro,
2008-01-22,0.68, 1.87, -11.09, 2.05, 1.57, 7.11, repro,
2008-01-23,-0.21, 1.93, -10.66, 2.03, 1.57, 7.05, repro,
2008-01-24,1.22, 0.99, -11.27, 2.03, 1.56, 7.05, repro,
2008-01-25,-0.06, 0.46, -19.67, 2.05, 1.57, 7.12, repro,
2008-01-26,-2.85, 4.26, -20.80, 2.06, 1.58, 7.16, repro,
2008-01-27,-0.35, 3.70, -9.50, 2.08, 1.58, 7.19, repro,
2008-01-28,0.25, -0.11, -2.06, 2.06, 1.58, 7.21, repro,
2008-01-29,-0.08, 0.72, -2.32, 2.15, 1.69, 7.54, repro,
2008-01-30,-0.74, -0.31, -12.02, 2.14, 1.65, 7.44, repro,
2008-01-31,-1.71, -0.53, -10.37, 2.07, 1.59, 7.23, repro,
2008-02-01,-0.54, -1.03, -10.12, 2.04, 1.58, 7.17, repro,
2008-02-02,0.10, -1.22, -3.69, 2.04, 1.57, 7.16, repro,
2008-02-03,-0.29, -0.85, -6.54, 2.04, 1.58, 7.19, repro,
2008-02-04,-0.40, 1.43, -22.45, 2.03, 1.58, 7.12, repro,
2008-02-05,1.05, 0.07, -10.36, 2.09, 1.65, 7.39, repro,
2008-02-06,0.70, -2.26, -6.08, 2.09, 1.64, 7.34, repro,
2008-02-07,0.75, -2.40, -3.89, 2.09, 1.61, 7.38, repro,
2008-02-08,-1.33, -0.62, 5.04, 2.06, 1.59, 7.26, repro,
2008-02-09,-1.13, 1.87, -5.92, 2.33, 1.76, 8.08, repro,
2008-02-10,-1.81, 0.77, -6.95, 2.06, 1.60, 7.31, repro,
2008-02-11,-0.17, 1.67, -5.37, 2.07, 1.60, 7.26, repro,
2008-02-12,0.69, 2.07, -6.89, 2.07, 1.58, 7.20, repro,
2008-02-13,0.19, 2.17, -10.65, 2.06, 1.58, 7.21, repro,
2008-02-14,0.68, 0.28, -12.58, 2.04, 1.57, 7.14, repro,
2008-02-15,3.26, 1.87, -14.03, 2.08, 1.64, 7.40, repro,
2008-02-16,0.02, 0.93, -11.84, 2.06, 1.59, 7.24, repro,
2008-02-17,1.02, 1.29, -13.76, 2.05, 1.59, 7.17, repro,
2008-02-18,0.21, 1.54, -19.26, 2.05, 1.59, 7.16, repro,
2008-02-19,-0.81, -0.13, -5.30, 2.05, 1.59, 7.22, repro,
2008-02-20,0.80, 1.67, -12.19, 2.05, 1.59, 7.26, repro,
2008-02-21,0.63, -0.10, -8.92, 2.05, 1.59, 7.15, repro,
2008-02-22,-0.84, 0.97, -10.90, 2.04, 1.58, 7.10, repro,
2008-02-23,-1.88, 0.07, -1.79, 2.05, 1.58, 7.11, repro,
2008-02-24,-5.09, 0.73, -0.77, 2.05, 1.58, 7.18, repro,
2008-02-25,-0.94, -0.09, -6.38, 2.08, 1.59, 7.32, repro,
2008-02-26,-1.52, 0.36, -10.46, 2.07, 1.59, 7.26, repro,
2008-02-27,-0.30, 1.21, -14.62, 2.11, 1.63, 7.45, repro,
2008-02-28,0.08, 3.29, -7.53, 2.06, 1.59, 7.12, repro,
2008-02-29,-1.43, 1.97, -12.36, 2.06, 1.59, 7.17, repro,
2008-03-01,-0.49, 2.46, -9.31, 2.08, 1.59, 7.30, repro,
2008-03-02,1.36, 1.93, -17.21, 2.09, 1.62, 7.38, repro,
2008-03-03,0.92, 1.50, -18.69, 2.07, 1.58, 7.22, repro,
2008-03-04,1.04, 1.26, -19.16, 2.06, 1.58, 7.12, repro,
2008-03-05,2.03, 2.36, -17.05, 2.14, 1.70, 7.65, repro,
2008-03-06,0.25, 1.34, -13.87, 2.06, 1.60, 7.26, repro,
2008-03-07,-0.15, 0.40, -11.26, 2.08, 1.60, 7.38, repro,
2008-03-08,0.77, 1.22, -19.12, 2.09, 1.63, 7.45, repro,
2008-03-09,0.75, 0.51, -16.81, 2.08, 1.62, 7.38, repro,
2008-03-10,-0.94, -0.22, -17.17, 2.05, 1.58, 7.10, repro,
2008-03-11,-1.15, -0.44, -8.03, 2.06, 1.59, 7.18, repro,
2008-03-12,-0.75, -0.97, -6.41, 2.08, 1.62, 7.35, repro,
2008-03-13,-0.32, -0.83, 2.18, 2.08, 1.62, 7.40, repro,
2008-03-14,-1.60, -0.69, -0.66, 2.06, 1.61, 7.27, repro,
2008-03-15,-0.12, 0.45, -17.71, 2.09, 1.61, 7.37, repro,
2008-03-16,-2.50, -1.38, -8.85, 2.09, 1.62, 7.32, repro,
2008-03-17,2.02, -1.77, -0.30, 2.20, 1.76, 7.99, repro,
2008-03-18,-0.14, -1.09, -2.75, 2.16, 1.69, 7.67, repro,
2008-03-19,-1.03, -0.46, -8.86, 2.07, 1.61, 7.27, repro,
2008-03-20,0.41, -0.34, -12.81, 2.08, 1.62, 7.31, repro,
2008-03-21,-0.93, -0.53, -10.72, 2.09, 1.61, 7.31, repro,
2008-03-22,0.91, -0.42, -14.29, 2.11, 1.61, 7.34, repro,
2008-03-23,0.47, -0.58, -16.25, 2.10, 1.62, 7.39, repro,
2008-03-24,0.62, 0.89, -10.66, 2.07, 1.61, 7.32, repro,
2008-03-25,-1.85, -0.83, -6.46, 2.11, 1.64, 7.41, repro,
2008-03-26,-2.17, 0.67, -10.12, 2.12, 1.64, 7.44, repro,
2008-03-27,-0.47, -0.59, -12.06, 2.12, 1.64, 7.40, repro,
2008-03-28,0.24, 0.24, -9.36, 2.10, 1.62, 7.31, repro,
2008-03-29,1.46, 1.35, -6.08, 2.07, 1.58, 7.24, repro,
2008-03-30,-0.13, -0.67, -8.30, 2.06, 1.57, 7.16, repro,
2008-03-31,0.57, -0.74, -9.04, 2.07, 1.57, 7.19, repro,
2008-04-01,1.34, 0.36, -9.51, 2.08, 1.57, 7.23, repro,
2008-04-02,-0.57, -0.80, -7.92, 2.15, 1.61, 7.49, repro,
2008-04-03,-1.21, 0.75, -11.80, 2.13, 1.61, 7.35, repro,
2008-04-04,-0.45, 1.10, -13.50, 2.06, 1.57, 7.23, repro,
2008-04-05,0.23, -0.14, -4.72, 2.08, 1.58, 7.24, repro,
2008-04-06,-1.15, -0.72, -8.06, 2.07, 1.58, 7.22, repro,
2008-04-07,0.67, 0.51, -12.60, 2.09, 1.59, 7.31, repro,
2008-04-08,-0.39, -1.27, -13.26, 2.07, 1.58, 7.23, repro,
2008-04-09,-0.56, -0.40, -4.65, 2.07, 1.58, 7.21, repro,
2008-04-10,2.49, -0.30, -10.28, 2.09, 1.57, 7.28, repro,
2008-04-11,2.69, 0.25, -16.94, 2.07, 1.58, 7.26, repro,
2008-04-12,1.18, -1.52, -14.20, 2.07, 1.57, 7.23, repro,
2008-04-13,1.09, -1.12, -14.42, 2.08, 1.58, 7.27, repro,
2008-04-14,-0.53, -0.81, -2.78, 2.08, 1.58, 7.30, repro,
2008-04-15,1.47, -0.53, -8.12, 2.11, 1.62, 7.31, repro,
2008-04-16,2.03, -0.44, -6.69, 2.10, 1.62, 7.38, repro,
2008-04-17,0.69, -0.60, -8.32, 2.08, 1.57, 7.28, repro,
2008-04-18,-0.36, -1.85, -11.26, 2.08, 1.58, 7.27, repro,
2008-04-19,-0.94, -2.13, -9.27, 2.07, 1.58, 7.24, repro,
2008-04-20,0.91, -1.31, -12.20, 2.09, 1.57, 7.34, repro,
2008-04-21,-0.87, -1.50, -9.23, 2.10, 1.58, 7.35, repro,
2008-04-22,-0.62, 0.47, -8.57, 2.40, 1.93, 8.76, repro,
2008-04-23,-1.00, -0.68, -8.98, 2.14, 1.63, 7.44, repro,
2008-04-24,-0.48, -0.64, -15.69, 2.11, 1.60, 7.41, repro,
2008-04-25,-0.36, -1.09, -9.74, 2.11, 1.58, 7.37, repro,
2008-04-26,0.40, -0.05, -20.05, 2.19, 1.62, 7.60, repro,
2008-04-27,-1.35, -0.69, -12.89, 2.17, 1.60, 7.46, repro,
2008-04-28,-0.41, -1.03, -12.18, 2.16, 1.58, 7.38, repro,
2008-04-29,0.62, -1.51, -5.08, 2.21, 1.60, 7.47, repro,
2008-04-30,2.11, -0.63, -13.66, 2.17, 1.64, 7.51, repro,
2008-05-01,2.68, -0.28, -15.41, 2.16, 1.61, 7.49, repro,
2008-05-02,0.71, -0.63, -6.18, 2.19, 1.65, 7.62, repro,
2008-05-03,-0.70, -1.36, -7.87, 2.14, 1.60, 7.39, repro,
2008-05-04,-1.12, -1.40, -2.84, 2.10, 1.59, 7.28, repro,
2008-05-05,1.84, -0.03, -9.41, 2.15, 1.61, 7.42, repro,
2008-05-06,0.86, -2.65, -11.57, 2.14, 1.62, 7.50, repro,
2008-05-07,2.53, -1.32, -9.41, 2.13, 1.59, 7.45, repro,
2008-05-08,1.00, -1.08, -6.28, 2.18, 1.65, 7.60, repro,
2008-05-09,-0.62, -0.60, -6.20, 2.12, 1.59, 7.35, repro,
2008-05-10,-0.50, -1.26, -8.56, 2.09, 1.56, 7.24, repro,
2008-05-11,-0.75, -1.57, -3.91, 2.12, 1.60, 7.36, repro,
2008-05-12,2.68, -0.74, -7.00, 2.20, 1.65, 7.71, repro,
2008-05-13,1.80, -0.65, -4.96, 2.17, 1.63, 7.55, repro,
2008-05-14,1.92, 0.07, -23.61, 2.09, 1.57, 7.29, repro,
2008-05-15,4.97, 3.11, -10.46, 2.11, 1.57, 7.29, repro,
2008-05-16,1.57, 1.04, -14.12, 2.12, 1.58, 7.30, repro,
2008-05-17,-0.08, -1.68, -10.45, 2.14, 1.59, 7.37, repro,
2008-05-18,-2.03, -0.23, -6.50, 2.15, 1.61, 7.46, repro,
2008-05-19,-0.38, -0.94, -4.09, 2.09, 1.56, 7.26, repro,
2008-05-20,-0.26, -1.15, -0.37, 2.09, 1.56, 7.25, repro,
2008-05-21,1.47, -1.15, -8.07, 2.09, 1.57, 7.28, repro,
2008-05-22,-2.56, -2.27, 4.74, 2.09, 1.60, 7.36, repro,
2008-05-23,2.21, 0.36, 1.05, 2.10, 1.60, 7.45, repro,
2008-05-24,0.57, -1.74, -4.81, 2.11, 1.57, 7.33, repro,
2008-05-25,0.74, -0.89, -5.97, 2.09, 1.56, 7.28, repro,
2008-05-26,1.25, -0.72, -3.55, 2.09, 1.59, 7.35, repro,
2008-05-27,0.91, -0.65, -6.81, 2.08, 1.57, 7.29, repro,
2008-05-28,0.39, -1.21, -4.36, 2.14, 1.61, 7.46, repro,
2008-05-29,0.92, -0.13, -6.35, 2.15, 1.61, 7.44, repro,
2008-05-30,0.33, -0.05, 1.88, 2.08, 1.56, 7.29, repro,
2008-05-31,1.46, -0.64, -8.20, 2.17, 1.65, 7.59, repro,
2008-06-01,-0.01, 0.11, -2.79, 2.08, 1.56, 7.26, repro,
2008-06-02,0.81, 0.24, -10.03, 2.09, 1.57, 7.27, repro,
2008-06-03,1.08, -0.14, -2.77, 2.15, 1.63, 7.56, repro,
2008-06-04,1.53, 0.66, -1.92, 2.09, 1.57, 7.30, repro,
2008-06-05,1.20, -0.30, -5.83, 2.11, 1.58, 7.43, repro,
2008-06-06,1.50, -1.46, -2.04, 2.11, 1.59, 7.34, repro,
2008-06-07,2.33, 2.50, -8.46, 2.15, 1.65, 7.55, repro,
2008-06-08,1.30, 0.56, -10.28, 2.15, 1.61, 7.45, repro,
2008-06-09,0.63, 0.47, -1.07, 2.14, 1.60, 7.44, repro,
2008-06-10,1.40, 0.49, -5.86, 2.11, 1.57, 7.35, repro,
2008-06-11,3.29, 0.50, -11.13, 2.09, 1.56, 7.27, repro,
2008-06-12,3.52, 1.07, -13.88, 2.10, 1.58, 7.36, repro,
2008-06-13,1.49, 0.02, -9.76, 2.09, 1.56, 7.26, repro,
2008-06-14,1.16, 0.88, -9.32, 2.14, 1.59, 7.40, repro,
2008-06-15,0.58, 0.10, -3.87, 2.14, 1.60, 7.42, repro,
2008-06-16,0.24, 0.43, -4.27, 2.09, 1.56, 7.27, repro,
2008-06-17,0.32, -0.13, -6.00, 2.08, 1.57, 7.28, repro,
2008-06-18,0.67, 0.39, -9.34, 2.08, 1.56, 7.21, repro,
2008-06-19,1.39, -0.43, -10.27, 2.11, 1.62, 7.43, repro,
2008-06-20,1.39, 0.90, -12.00, 2.10, 1.58, 7.34, repro,
2008-06-21,-0.53, 0.78, -7.07, 2.11, 1.58, 7.37, repro,
2008-06-22,-0.67, -0.47, -4.48, 2.09, 1.57, 7.27, repro,
2008-06-23,0.22, -0.15, -0.03, 2.08, 1.56, 7.24, repro,
2008-06-24,1.20, 0.25, -9.93, 2.09, 1.56, 7.24, repro,
2008-06-25,1.10, 1.86, -7.23, 2.10, 1.57, 7.31, repro,
2008-06-26,2.42, 0.66, -3.45, 2.12, 1.61, 7.40, repro,
2008-06-27,2.09, -0.61, -0.92, 2.18, 1.63, 7.65, repro,
2008-06-28,2.45, -1.13, 1.51, 2.15, 1.64, 7.61, repro,
2008-06-29,-0.96, 0.32, 1.05, 2.12, 1.62, 7.40, repro,
2008-06-30,-0.51, -3.15, 0.25, 2.08, 1.56, 7.22, repro,
2008-07-01,1.05, -0.37, -5.04, 2.11, 1.57, 7.34, repro,
2008-07-02,2.41, 0.08, -0.97, 2.09, 1.56, 7.26, repro,
2008-07-03,1.45, -3.65, 5.13, 2.09, 1.57, 7.29, repro,
2008-07-04,3.62, -1.20, -4.18, 2.09, 1.56, 7.26, repro,
2008-07-05,0.65, 0.22, -3.90, 2.09, 1.56, 7.22, repro,
2008-07-06,1.53, 0.30, -0.44, 2.11, 1.57, 7.36, repro,
2008-07-07,2.12, 0.29, 0.78, 2.15, 1.63, 7.52, repro,
2008-07-08,2.27, 0.56, 1.84, 2.09, 1.56, 7.26, repro,
2008-07-09,1.16, -0.61, 2.96, 2.09, 1.57, 7.27, repro,
2008-07-10,1.96, 0.52, -0.81, 2.21, 1.68, 7.80, repro,
2008-07-11,1.97, 1.32, 0.71, 2.16, 1.60, 7.41, repro,
2008-07-12,1.50, 0.97, -8.80, 2.13, 1.58, 7.45, repro,
2008-07-13,2.25, -0.54, 2.46, 2.20, 1.71, 7.75, repro,
2008-07-14,1.30, -1.19, 5.06, 2.12, 1.58, 7.33, repro,
2008-07-15,1.06, 0.12, -9.62, 2.12, 1.59, 7.45, repro,
2008-07-16,0.82, 0.77, -3.52, 2.09, 1.57, 7.26, repro,
2008-07-17,1.92, 0.86, -7.00, 2.08, 1.56, 7.24, repro,
2008-07-18,2.27, -0.03, 0.75, 2.23, 1.61, 7.65, repro,
2008-07-19,1.09, 0.83, 1.42, 2.16, 1.58, 7.51, repro,
2008-07-20,1.38, -0.43, 4.13, 2.10, 1.56, 7.26, repro,
2008-07-21,0.93, -3.02, 4.45, 2.09, 1.57, 7.23, repro,
2008-07-22,-0.11, -0.10, -2.79, 2.09, 1.56, 7.23, repro,
2008-07-23,0.63, -0.35, 0.36, 2.14, 1.57, 7.37, repro,
2008-07-24,1.62, -0.34, 4.38, 2.09, 1.57, 7.28, repro,
2008-07-25,0.46, -0.78, 6.34, 2.10, 1.56, 7.28, repro,
2008-07-26,-0.00, -0.60, 10.87, 2.08, 1.56, 7.21, repro,
2008-07-27,0.64, -0.62, 8.56, 2.08, 1.56, 7.22, repro,
2008-07-28,0.23, 0.27, 2.77, 2.17, 1.60, 7.45, repro,
2008-07-29,0.35, 0.10, 6.63, 2.22, 1.62, 7.64, repro,
2008-07-30,0.96, -0.05, 6.70, 2.17, 1.59, 7.57, repro,
2008-07-31,0.64, -0.18, 10.50, 2.07, 1.55, 7.18, repro,
2008-08-01,1.35, 0.87, 3.13, 2.08, 1.55, 7.21, repro,
2008-08-02,-0.94, 0.09, 12.17, 2.08, 1.56, 7.23, repro,
2008-08-03,1.90, -0.65, 4.52, 2.13, 1.61, 7.46, repro,
2008-08-04,1.49, 0.61, 1.34, 2.14, 1.61, 7.41, repro,
2008-08-05,2.64, -0.59, 1.98, 2.09, 1.55, 7.21, repro,
2008-08-06,-1.39, -0.39, 6.42, 2.14, 1.57, 7.36, repro,
2008-08-07,0.69, -3.35, 14.62, 2.19, 1.62, 7.51, repro,
2008-08-08,-0.19, -1.42, -0.21, 2.19, 1.64, 7.62, repro,
2008-08-09,1.77, -2.20, 7.70, 2.14, 1.57, 7.37, repro,
2008-08-10,0.77, 0.41, 1.52, 2.15, 1.56, 7.34, repro,
2008-08-11,1.39, -0.14, 2.48, 2.15, 1.57, 7.34, repro,
2008-08-12,-0.42, 1.16, 8.80, 2.12, 1.57, 7.29, repro,
2008-08-13,0.82, -0.30, 5.79, 2.14, 1.58, 7.44, repro,
2008-08-14,3.11, -0.44, 7.10, 2.22, 1.61, 7.58, repro,
2008-08-15,-0.13, -1.67, 14.29, 2.25, 1.67, 8.00, repro,
2008-08-16,2.02, 0.04, 1.59, 2.23, 1.63, 7.81, repro,
2008-08-17,0.43, -0.04, 3.43, 2.24, 1.65, 7.94, repro,
2008-08-18,-3.94, -2.72, 13.77, 2.28, 1.69, 8.19, repro,
2008-08-19,0.27, -0.92, 11.77, 2.26, 1.63, 7.87, repro,
2008-08-20,1.28, -0.80, 6.95, 2.27, 1.66, 7.91, repro,
2008-08-21,-1.94, -2.50, 10.09, 2.25, 1.64, 7.98, repro,
2008-08-22,0.50, -1.31, 10.33, 2.22, 1.65, 7.88, repro,
2008-08-23,1.48, -0.54, 4.78, 2.31, 1.71, 8.20, repro,
2008-08-24,-0.92, -1.83, 9.53, 2.67, 2.16, 10.03, repro,
2008-08-25,-0.77, -0.65, 12.97, 2.56, 1.92, 9.33, repro,
2008-08-26,-0.16, -0.84, 9.60, 2.23, 1.64, 7.88, repro,
2008-08-27,1.02, 0.26, 10.02, 2.30, 1.69, 8.28, repro,
2008-08-28,3.19, 2.18, 1.36, 2.33, 1.70, 8.03, repro,
2008-08-29,1.46, 1.32, 0.75, 2.25, 1.68, 7.99, repro,
2008-08-30,-1.02, 0.71, 15.30, 2.27, 1.67, 8.07, repro,
2008-08-31,1.57, 1.77, 8.88, 2.33, 1.70, 8.25, repro,
2008-09-01,3.20, 0.07, 4.35, 2.86, 2.01, 9.53, repro,
2008-09-02,1.90, -0.79, 0.99, 2.28, 1.68, 8.09, repro,
2008-09-03,0.45, -0.44, 6.07, 2.26, 1.70, 8.05, repro,
2008-09-04,1.43, -0.32, 9.23, 2.44, 1.84, 8.90, repro,
2008-09-05,2.81, -0.49, -1.98, 2.39, 1.73, 8.35, repro,
2008-09-06,1.96, -1.18, 2.98, 2.27, 1.67, 8.02, repro,
2008-09-07,1.18, -1.59, 7.47, 2.36, 1.72, 8.28, repro,
2008-09-08,1.47, -2.55, 11.46, 2.29, 1.69, 8.11, repro,
2008-09-09,1.76, -0.86, -1.74, 3.01, 2.17, 10.50, repro,
2008-09-10,2.70, -0.32, 4.59, 2.30, 1.71, 8.20, repro,
2008-09-11,0.61, -0.19, 8.08, 2.30, 1.69, 8.06, repro,
2008-09-12,1.96, 0.43, 6.24, 2.30, 1.72, 8.17, repro,
2008-09-13,1.47, 0.28, 10.09, 2.30, 1.69, 8.05, repro,
2008-09-14,0.80, -1.63, 11.94, 2.32, 1.70, 8.17, repro,
2008-09-15,0.56, 0.81, 4.64, 2.24, 1.68, 8.03, repro,
2008-09-16,0.18, -0.05, 5.03, 2.29, 1.77, 8.26, repro,
2008-09-17,-1.05, 2.01, -4.14, 2.42, 1.79, 8.61, repro,
2008-09-18,-2.08, -2.43, 5.15, 2.26, 1.64, 7.95, repro,
2008-09-19,-4.90, -4.96, 6.73, 2.22, 1.65, 7.85, repro,
2008-09-20,1.35, -0.63, 4.98, 2.28, 1.72, 8.19, repro,
2008-09-21,1.71, -0.94, 3.46, 2.31, 1.73, 8.32, repro,
2008-09-22,2.11, 0.54, -0.85, 2.26, 1.69, 8.01, repro,
2008-09-23,0.49, 0.97, 8.67, 2.49, 1.91, 9.04, repro,
2008-09-24,-0.21, 0.11, 12.20, 2.38, 1.76, 8.35, repro,
2008-09-25,-0.38, 0.14, 8.57, 2.28, 1.69, 8.01, repro,
2008-09-26,0.03, -0.44, 9.33, 2.31, 1.69, 8.22, repro,
2008-09-27,-0.55, -0.41, 10.71, 2.72, 2.15, 10.41, repro,
2008-09-28,1.50, 0.24, 3.02, 2.26, 1.67, 8.05, repro,
2008-09-29,-0.16, 0.87, 3.13, 2.31, 1.70, 8.20, repro,
2008-09-30,2.01, -3.52, 12.62, 2.30, 1.68, 8.27, repro,
2008-10-01,-0.91, -2.05, 10.15, 2.30, 1.68, 8.29, repro,
2008-10-02,-1.36, -1.10, 1.30, 2.35, 1.75, 8.36, repro,
2008-10-03,0.66, -0.57, 3.98, 2.29, 1.73, 8.32, repro,
2008-10-04,-0.29, 0.70, 2.91, 2.27, 1.71, 8.14, repro,
2008-10-05,0.01, -0.99, 7.18, 2.37, 1.77, 8.64, repro,
2008-10-06,1.89, 0.50, 1.32, 2.71, 2.07, 9.86, repro,
2008-10-07,-0.18, -0.80, 7.32, 2.28, 1.68, 8.10, repro,
2008-10-08,1.27, 0.30, -0.87, 2.82, 2.24, 10.52, repro,
2008-10-09,2.75, 0.89, 1.55, 2.44, 1.93, 9.09, repro,
2008-10-10,0.94, -1.37, -0.44, 2.40, 1.82, 8.82, repro,
2008-10-11,-0.02, -2.75, -1.03, 2.35, 1.77, 8.46, repro,
2008-10-12,-1.35, -1.39, 3.86, 2.29, 1.77, 8.46, repro,
2008-10-13,-0.06, 0.06, 5.06, 2.26, 1.71, 8.25, repro,
2008-10-14,0.07, 0.43, -2.04, 2.17, 1.64, 7.80, repro,
2008-10-15,-0.11, 0.84, -1.82, 2.34, 1.74, 8.41, repro,
2008-10-16,0.56, 0.71, -0.35, 2.28, 1.72, 8.30, repro,
2008-10-17,0.74, 0.62, -5.95, 2.29, 1.70, 8.34, repro,
2008-10-18,1.32, -0.13, 0.52, 2.25, 1.69, 8.16, repro,
2008-10-19,-1.30, -0.59, 0.03, 2.27, 1.68, 8.17, repro,
2008-10-20,-0.67, -0.98, 8.75, 2.24, 1.69, 8.08, repro,
2008-10-21,-1.37, 0.30, 4.91, 2.45, 1.88, 9.01, repro,
2008-10-22,0.75, 0.23, 1.48, 2.25, 1.67, 8.01, repro,
2008-10-23,0.63, 0.05, 3.84, 2.26, 1.70, 8.12, repro,
2008-10-24,0.94, 0.14, 3.77, 2.22, 1.66, 7.86, repro,
2008-10-25,0.21, -0.36, 7.16, 2.22, 1.69, 8.24, repro,
2008-10-26,1.44, 0.90, -6.63, 2.24, 1.68, 8.18, repro,
2008-10-27,0.83, -0.36, -3.66, 2.24, 1.67, 8.12, repro,
2008-10-28,2.29, 1.18, -1.76, 2.38, 1.73, 8.48, repro,
2008-10-29,-1.07, -0.32, 3.05, 2.35, 1.75, 8.56, repro,
2008-10-30,-4.45, 1.12, 0.89, 2.22, 1.68, 8.00, repro,
2008-10-31,-5.49, 6.16, -17.17, 2.31, 1.75, 8.35, repro,
2008-11-01,-2.57, 1.69, -9.94, 2.25, 1.73, 8.26, repro,
2008-11-02,-0.79, -0.86, 7.17, 2.33, 1.82, 8.60, repro,
2008-11-03,-1.59, 1.65, 9.68, 2.74, 2.46, 11.05, repro,
2008-11-04,0.22, 0.11, 14.02, 2.33, 1.82, 8.65, repro,
2008-11-05,1.10, -0.53, 4.76, 2.96, 2.09, 10.53, repro,
2008-11-06,0.40, -0.56, -3.03, 2.44, 1.95, 9.49, repro,
2008-11-07,0.82, 1.44, -5.99, 2.36, 1.80, 8.66, repro,
2008-11-08,-0.79, 0.19, -4.47, 2.28, 1.76, 8.36, repro,
2008-11-09,1.94, 0.14, -4.91, 2.31, 1.78, 8.71, repro,